Location: Winthrop
(48.4780°N, 120.1850°W)
Time: 00:58:18
(UTC-07:00)

S-56A Canister/Altair - Pass Details

Date: 09 June 2023
Orbit: 640 x 2489 km, 38.9° (Epoch: 29 September)

Event Time Altitude Azimuth Distance (km) Brightness Sun altitude
Rises 03:41:44 0° 280° (W) 6,151 11.9 -10.0°
Reaches altitude 10° 03:48:06 10° 262° (W) 5,141 11.3 -9.3°
Maximum altitude 03:55:32 16° 232° (SW) 4,499 10.8 -8.5°
Drops below altitude 10° 04:02:28 10° 200° (SSW) 4,705 10.9 -7.8°
Sets 04:07:54 0° 181° (S) 5,390 11.4 -7.2°
